METAR Formatted Surface Weather Observation
Issued by NWS Albuquerque, NM

Home | Current Version | Previous Version | Text Only | Print | Product List | Glossary On
Versions: 1 2 3 4 5 6 7 8 9 10 11 12 13 14 15 16 17 18 19 20 21 22 23 24 25 26 27 28 29 30 31 32 33 34 35 36 37 38 39 40 41 42 43 44 45 46 47 48 49 50
000
SAUS45 KABQ 232352
MTRABQ
METAR KABQ 232352Z 32013G23KT 10SM FEW070 06/M13 A2996 RMK AO2 PK
WND 31032/2319 SLP124 VIRGA NE-SE T00561128 10083 20056 51025



USA.gov is the U.S. government's official web portal to all federal, state and local government web resources and services.